Theta_e
328 329 329 329 329 328 328 327 325 326 324 322 321 321 320 319 319 319 318 319 319 318 319 318 318 320 319 315 311 308 307 305 303 301 299 298 298 298
321 324 325 326 327 328 328 327 327 325 326 323 323 322 322 321 320 319 318 318 319 319 319 318 316 317 316 312 308 305 303 302 300 298 297 297 297 298
315 317 319 321 323 324 325 326 326 325 325 324 323 323 322 322 321 321 319 318 318 319 318 317 315 313 312 308 305 303 301 299 297 296 296 296 296 296
314 315 317 318 319 319 322 323 324 324 324 324 323 323 322 322 321 321 319 318 318 319 317 315 311 309 307 304 302 300 298 297 295 294 294 294 294 294
311 312 313 314 315 315 317 319 321 322 323 324 323 323 322 320 317 316 314 314 313 315 312 311 308 306 303 301 300 298 296 295 294 293 293 292 292 292
309 310 310 311 312 313 314 315 317 318 320 321 322 322 322 313 314 311 305 305 306 307 307 306 305 304 302 299 298 295 295 294 293 292 292 291 291 292
307 305 306 308 308 309 312 314 315 316 317 318 319 321 320 304 307 310 310 307 303 302 301 302 301 300 299 298 295 294 293 293 292 292 291 291 291 291
300 302 304 305 306 307 309 310 313 314 315 316 317 318 318 314 312 310 309 301 300 299 298 297 298 296 295 295 293 292 292 292 291 291 291 291 291 292
300 299 302 302 300 303 304 305 307 309 311 313 315 316 318 319 316 312 309 306 305 300 297 296 292 292 293 292 290 290 290 291 291 290 290 290 290 291
298 298 299 295 296 299 302 303 302 304 306 310 313 315 316 318 318 314 311 305 295 295 296 292 289 291 292 291 289 290 290 290 290 290 290 289 289 289
296 297 294 293 295 296 298 299 300 301 302 303 307 310 311 313 317 312 300 297 293 290 291 289 288 288 288 288 288 290 290 290 290 290 289 289 288 288
295 294 293 293 293 295 297 297 298 299 299 301 304 306 307 309 313 313 305 301 293 290 289 288 287 287 287 286 287 287 287 288 289 289 289 288 288 287
293 293 292 292 293 295 297 299 300 300 301 302 303 303 301 303 305 306 304 301 294 292 288 291 286 285 284 284 284 285 286 287 286 285 285 286 286 286
292 292 291 291 294 296 298 301 302 302 302 302 300 295 293 291 292 295 295 295 294 294 289 290 286 285 284 283 283 282 283 283 283 283 283 283 284 285
290 290 291 293 295 295 295 296 298 297 300 300 295 292 291 292 292 291 290 289 289 288 288 287 286 284 283 281 281 281 281 282 282 282 282 282 282 283
289 290 292 292 293 293 293 294 293 293 294 294 292 291 290 289 287 286 285 286 285 284 285 284 284 283 281 281 281 280 280 280 281 282 281 281 282 282
289 290 290 290 291 291 292 292 292 292 292 291 289 288 287 286 285 285 285 285 284 284 283 283 282 282 281 281 280 280 280 280 281 281 281 281 281 281
288 288 287 288 290 290 291 291 291 290 290 289 288 287 286 285 285 284 284 285 285 283 282 282 282 281 280 281 281 280 280 280 281 282 281 280 280 281
286 286 286 288 289 290 290 290 290 290 288 288 287 286 285 285 285 285 285 285 284 282 282 282 280 276 271 276 280 282 281 282 282 281 281 280 280 280
284 285 286 287 288 289 289 289 289 287 286 286 286 285 286 286 285 285 285 284 282 281 280 281 281 279 273 274 275 279 281 279 278 278 279 280 280 281
284 284 285 286 287 288 289 288 287 286 286 286 285 285 285 285 285 284 283 284 282 281 273 278 281 281 280 278 275 277 280 282 281 280 280 280 281 282
283 284 284 285 286 286 288 288 286 286 286 285 285 285 285 285 284 283 284 283 282 281 280 280 280 280 279 277 274 275 278 280 282 282 282 283 283 284
283 283 284 283 284 285 287 287 286 286 285 285 285 285 285 284 283 283 283 282 281 280 280 279 280 279 279 278 278 278 278 280 282 283 283 285 284 284
Wind_Speed
34 35 35 35 34 34 33 32 15 14 15 23 28 32 38 36 43 45 48 49 51 47 47 43 38 36 40 37 31 24 21 18 19 18 18 18 17 17
27 28 31 32 34 35 35 34 31 18 15 26 34 36 36 37 40 44 47 45 47 46 45 44 39 41 43 38 31 27 21 19 19 19 17 17 16 16
32 31 29 30 28 30 32 32 31 31 15 31 35 35 32 36 38 41 45 49 46 45 44 44 39 43 42 34 29 25 20 19 20 19 17 17 16 16
27 28 28 29 29 29 28 30 32 34 30 20 34 32 33 34 38 41 43 46 47 46 48 44 37 39 30 27 27 22 20 21 20 19 18 16 15 15
26 27 28 29 30 30 30 29 30 31 35 30 26 34 32 31 29 33 37 40 43 45 41 38 36 33 27 24 24 22 22 23 21 19 17 15 15 15
26 27 28 28 28 31 31 32 31 30 30 29 27 30 33 21 28 22 16 28 34 37 35 33 35 30 27 24 24 22 23 22 21 19 17 15 15 16
26 28 29 30 33 35 33 30 29 29 27 23 14 22 19 4 11 21 23 26 28 30 30 30 32 32 30 26 26 23 24 21 21 19 16 16 16 17
29 30 29 29 28 33 30 34 35 32 28 23 17 14 21 16 20 22 21 4 4 26 26 26 34 31 31 32 25 25 23 21 20 18 17 16 17 17
28 31 31 28 35 33 35 35 34 32 33 34 28 26 26 28 25 25 23 19 10 15 30 17 28 24 31 29 23 23 21 20 19 18 17 17 17 17
30 29 29 36 35 34 35 34 36 34 32 33 33 33 34 34 27 31 32 21 10 13 25 4 18 15 26 24 21 20 21 20 19 18 18 17 17 17
30 27 33 34 35 36 36 35 37 38 35 35 38 41 39 40 38 22 14 8 2 6 23 7 8 10 15 19 23 20 20 19 18 19 18 16 17 17
28 33 33 33 37 40 39 36 34 39 36 36 33 35 36 38 38 34 25 11 4 3 17 7 9 9 3 8 20 22 20 18 18 17 16 17 17 17
31 33 35 38 41 46 46 41 36 41 40 36 33 30 25 21 18 27 22 19 10 2 18 18 8 7 4 5 7 14 16 18 17 17 15 15 16 17
33 35 39 43 47 45 44 40 39 41 32 28 21 15 11 6 7 10 14 17 14 10 33 14 10 11 7 3 2 8 13 14 14 15 18 16 13 13
34 40 44 42 38 35 36 40 35 30 28 19 11 4 9 15 18 19 19 20 23 24 25 14 8 17 11 5 4 5 4 6 9 12 15 14 13 12
37 39 36 33 30 32 32 32 28 24 16 7 2 9 16 16 15 15 17 21 21 15 11 8 8 12 8 7 7 5 9 2 5 10 9 14 17 17
42 30 27 27 29 29 30 29 27 22 11 5 9 10 11 13 14 18 18 11 7 7 7 8 7 5 2 5 7 13 13 14 15 14 11 16 18 19
29 24 24 25 26 27 27 28 27 19 12 7 8 8 10 12 14 14 16 9 7 9 7 8 8 2 2 7 16 12 11 13 12 12 14 14 18 24
23 23 23 25 28 28 27 26 25 21 15 9 8 10 12 14 15 12 11 10 8 10 9 10 6 4 2 1 3 13 11 12 14 14 19 18 16 20
24 24 25 29 30 30 28 27 27 19 10 7 8 11 13 13 12 11 11 8 9 6 6 6 4 8 4 4 2 5 10 16 16 15 15 20 23 22
26 26 27 31 31 32 29 27 23 16 9 8 7 8 10 12 10 11 12 12 10 6 2 3 4 2 4 5 2 5 12 9 16 21 13 12 12 11
26 27 30 32 33 33 29 27 19 13 4 2 6 11 12 13 10 12 13 13 9 6 4 3 2 5 6 5 3 5 14 19 13 17 20 23 10 3
29 30 30 34 33 33 28 26 17 7 1 7 11 13 14 12 12 14 14 12 10 6 3 0 2 6 9 10 10 8 13 18 11 15 12 8 18 21
Wind_Direction
281 274 267 261 255 252 252 250 253 266 261 260 265 260 255 247 249 250 249 249 250 250 244 242 237 228 228 226 231 227 226 230 239 246 251 253 253 256
303 297 289 282 277 271 263 256 248 250 268 259 261 257 258 258 255 250 248 247 248 248 245 241 239 230 228 229 232 233 225 229 237 241 241 243 247 247
308 304 300 300 292 281 276 268 256 248 251 264 258 262 255 255 254 255 249 245 244 247 243 242 242 232 227 228 231 230 223 227 231 232 235 238 240 242
323 317 308 306 302 298 292 283 270 260 259 262 263 260 252 247 246 248 246 243 241 242 240 235 231 221 218 220 223 217 218 223 223 228 227 231 236 240
315 311 305 303 299 296 293 289 286 281 269 263 263 260 249 242 234 238 238 238 238 237 232 223 215 214 213 219 216 213 216 214 219 223 223 230 236 239
316 314 309 305 300 300 299 295 293 290 286 277 267 263 248 227 219 216 214 229 222 230 221 215 205 211 212 215 218 219 214 215 220 223 223 230 236 239
321 319 313 309 309 305 297 291 290 291 288 284 279 273 265 202 203 236 221 222 218 212 209 211 204 204 212 212 216 214 219 219 220 224 225 229 236 238
322 321 316 313 315 313 311 311 302 291 288 284 280 277 277 250 219 216 224 176 221 215 200 197 199 206 208 211 211 225 221 216 216 223 223 235 239 238
318 321 317 318 316 310 311 309 306 299 295 290 283 278 276 274 241 225 218 210 219 190 196 202 194 197 211 223 214 222 219 216 218 221 233 237 234 241
310 311 311 311 309 309 309 307 303 299 295 288 280 280 279 272 256 232 223 212 154 172 186 174 178 192 213 217 216 220 218 220 223 228 233 233 235 246
307 308 309 305 304 310 310 303 300 298 295 289 287 288 291 285 267 218 165 161 189 172 187 133 161 147 199 207 214 215 221 222 229 230 226 231 240 247
311 311 310 307 307 308 310 305 297 295 297 296 291 288 289 284 276 232 203 199 149 147 186 123 144 150 155 206 218 222 223 224 217 214 226 240 241 245
316 313 311 310 310 310 308 300 291 293 290 286 285 277 267 255 242 213 213 193 163 129 175 145 151 150 107 140 183 191 196 196 209 224 231 235 239 248
317 313 310 310 311 311 313 307 305 305 292 280 268 240 214 183 159 165 170 167 164 157 160 144 138 156 131 138 167 195 210 213 219 232 246 247 239 237
317 312 310 310 312 318 317 319 321 316 303 282 252 220 169 159 153 134 128 125 116 135 158 159 141 163 160 135 155 175 169 215 210 234 249 247 247 246
320 316 314 314 316 318 322 322 319 319 315 305 200 157 158 148 127 127 111 109 104 108 118 136 147 167 158 181 182 187 219 240 176 185 256 262 255 254
323 323 321 325 321 324 326 322 318 311 300 268 165 157 144 126 112 123 120 112 100 126 116 146 152 157 222 214 214 235 241 243 252 265 268 273 276 271
330 327 324 320 319 322 322 319 320 301 286 238 180 152 138 130 124 126 130 115 109 137 143 158 138 102 304 262 237 227 232 248 271 277 267 254 263 272
331 328 320 317 316 318 319 317 314 302 283 242 185 153 139 139 146 138 132 121 119 131 127 129 136 109 92 235 324 226 235 262 274 263 262 252 260 269
333 324 317 317 316 318 320 319 316 301 272 235 179 158 156 147 134 129 134 124 126 101 110 126 177 195 153 191 233 243 235 259 259 253 255 270 276 278
330 323 317 317 315 320 321 319 311 296 268 222 181 154 134 130 128 129 129 144 123 113 124 200 223 244 252 269 284 262 289 281 274 263 259 246 260 263
324 320 317 319 320 319 323 321 310 302 248 196 121 130 130 135 127 124 126 130 141 142 155 139 206 239 243 224 246 264 286 309 304 273 259 246 226 225
325 318 318 322 319 318 325 323 309 291 226 137 137 125 136 114 127 137 138 140 136 124 106 30 258 260 253 244 258 268 265 288 295 306 307 244 239 241